Regional Weather Roundup
Issued by NWS San Diego, CA

Home | Current Version | Previous Version | Text Only | Print | Product List | Glossary On
Versions: 1 2 3 4 5 6 7 8 9 10 11 12 13 14 15 16 17 18 19 20 21 22 23 24 25 26 27 28 29 30 31 32 33 34 35 36 37 38 39 40 41 42 43 44 45 46 47 48 49 50
000
ASUS46 KSGX 171711
RWRSGX

SAN DIEGO HOURLY WEATHER ROUNDUP
NATIONAL WEATHER SERVICE SAN DIEGO CA
1000 AM PDT TUE OCT 17 2017

NOTE: "FAIR" INDICATES FEW OR NO CLOUDS BELOW 12,000 FEET WITH NO
SIGNIFICANT WEATHER AND/OR OBSTRUCTIONS TO VISIBILITY.

CAZ042-043-060-061-PZZ750-775-171800-

GREATER SAN DIEGO AREA

CITY           SKY/WX    TMP DP  RH WIND       PRES   REMARKS
SAN DIEGO AP   MOSUNNY   78  47  33 NW6       30.02R
NATIONAL CITY    N/A     77  44  30 CALM      30.02S
CHULA VISTA      N/A     83  45  27 CALM      29.93R
IMPERIAL BEACH MOSUNNY   79  44  28 SW5       30.01R
BROWN FIELD    SUNNY     84  26  12 SE5       30.02S
MIRAMAR MCAS   MOSUNNY   89  33  13 VRB3      30.02R
MONTGOMERY FLD SUNNY     88  31  13 CALM      30.02R
GILLESPIE FLD  SUNNY     77  36  22 CALM      30.03R

$$

NORTH SAN DIEGO COUNTY

CITY           SKY/WX    TMP DP  RH WIND       PRES   REMARKS
CAMP PENDLETON PTSUNNY   82  33  17 CALM      30.00F
OCEANSIDE AP   SUNNY     81  40  23 CALM      30.00F
OCEANSIDE HBR    N/A     73  59  61 W6        30.03F
VISTA            N/A     78  42  27 CALM      29.99R
CARLSBAD       SUNNY     80  38  22 CALM      30.01S
DEL MAR          N/A     75  52  44 CALM      30.02F
LA JOLLA SCRIP   N/A     74  60  61 SW1       30.00S
FALLBROOK        N/A     83  32  15 CALM      30.03R
ESCONDIDO        N/A     81  46  29 CALM      30.02S
SAN MARCOS       N/A     84  37  19 CALM      30.02S
POWAY            N/A     82  42  23 CALM      30.02S

$$

EAST SAN DIEGO COUNTY

CITY           SKY/WX    TMP DP  RH WIND       PRES   REMARKS
RAMONA         SUNNY     87  28  12 CALM      30.06S
SANTEE LAKES     N/A     78  39  25 CALM      30.00S
LA MESA          N/A     82  36  19 CALM      29.93R
JAMUL            N/A     85  37  18 CALM      30.00S
DESCANSO N       N/A     83  32  16 E3        29.97F
CAMPO            N/A     79  25  13 CALM      30.10S

$$

ORANGE COUNTY AND THE LOS ANGELES BASIN

CITY           SKY/WX    TMP DP  RH WIND       PRES   REMARKS
JOHN WAYNE AP  PTSUNNY   77  57  50 CALM      30.01S
LAGUNA BEACH     N/A     75  59  57 SE2       29.96S
LAKE FOREST FR   N/A     81  33  18 CALM      29.89R
HUNTINGTON BCH   N/A     75  54  47 CALM      30.03R
LOS ALAMITOS   MOSUNNY   78  38  23 NE5       30.01S
FULLERTON      PTSUNNY   80  38  22 CALM      30.01S
LONG BEACH     SUNNY     81  40  23 N5        30.02R
L.A. AP        MOSUNNY   80  50  34 NW3       30.01S
L.A. DOWNTOWN  SUNNY     82  34  17 CALM      30.00S

$$

THE INLAND EMPIRE

CITY           SKY/WX    TMP DP  RH WIND       PRES   REMARKS
CORONA         SUNNY     74  38  27 CALM      30.04S
CHINO          MOSUNNY   79  35  20 CALM      30.05S
ONTARIO        PTSUNNY   81  21  11 CALM      30.05R
SAN BERNARDINO MOSUNNY   79  25  13 CALM      30.06S
RIVERSIDE AP   SUNNY     79  33  19 CALM      30.04S
MORENO VALLEY    N/A     84  31  15 CALM      28.18S
MARCH ARB      SUNNY     75  33  21 CALM      30.07S
HORSETHIEF CYN   N/A     81  27  14 CALM      30.01S
PERRIS           N/A     77  39  26 CALM        N/A
HEMET EAST       N/A     81  32  16 CALM      30.06S
FRENCH VALLEY  FAIR      79  28  15 N5        30.07F
TEMECULA         N/A     69  43  38 CALM      30.11S

$$

SAN BERNARDINO AND RIVERSIDE COUNTY MOUNTAINS

CITY           SKY/WX    TMP DP  RH WIND       PRES   REMARKS
BIG BEAR AP    SUNNY     63  21  20 CALM      30.39S
ANGELUS OAKS     N/A     64  29  26 CALM      30.01S

$$

SOUTHERN DESERT INCLUDING THE COACHELLA VALLEY

CITY           SKY/WX    TMP DP  RH WIND       PRES   REMARKS
PALM SPRINGS   SUNNY     88  23   9 CALM      30.03S
THOUSAND PALMS   N/A     86  18   8 NE1       29.99R
PALM DESERT      N/A     81  43  26 CALM        N/A
THERMAL        SUNNY     82  33  17 NW3       29.98R
BLYTHE         MOSUNNY   77  10   7 SW3       30.03F
IMPERIAL AP    MOSUNNY   76  42  29 W3        29.99R
EL CENTRO NAS  PTSUNNY   79  22  12 W5        30.01R
YUMA AZ        PTSUNNY   83  24  11 NE7       29.99S
MEXICALI       PTSUNNY   79  19  11 NW7       30.00R

$$

UPPER DESERT

CITY           SKY/WX    TMP DP  RH WIND       PRES   REMARKS
VICTORVILLE AP SUNNY     72  16  12 CALM      30.18S
HESPERIA         N/A     74  25  16 CALM      30.21F
PALMDALE       SUNNY     68  15  13 MISG      30.18R
LANCASTER      SUNNY     63  15  15 CALM      30.17S
EDWARDS AFB    PTSUNNY   60   5  11 CALM      30.15F
DAGGETT        SUNNY     70  12  10 W13       30.14S
29 PALMS N     SUNNY     69   4   7 N6        30.20S
NEEDLES        SUNNY     80  10   7 N8        30.08S

$$

REGIONAL REPORTS

CITY           SKY/WX    TMP DP  RH WIND       PRES   REMARKS
SANTA BARBARA  PTSUNNY   72  61  68 NE5       30.00F
SANDBERG       MOSUNNY   80   7   6 MISG      30.27R
LAS VEGAS NV   MOSUNNY   71  14  11 E3        30.16S
PHOENIX AZ     PTSUNNY   88  46  23 E9        30.03S
TIJUANA        PTSUNNY   82  25  12 CALM      30.05R
ENSENADA NW      N/A     82  32  16 CALM      29.97S

$$

OFFSHORE ISLANDS

CITY           SKY/WX    TMP DP  RH WIND       PRES   REMARKS
CATALINA ARPT  SUNNY     84  25  11 N7        30.09R
SAN CLEMENTE I PTSUNNY   70  63  78 SW9       30.05R
SAN NICOLAS IS MOSUNNY   75  44  33 W24G33    30.05R

$$

MARINE AND OFFSHORE BUOY REPORTS

STATION/POSITION SKY/WX   TEMP    WIND        PRES    VSBY  SWELL
                          AIR SEA DIR/SP/G                  HT/PER/DIR
                          (F)     (DEG/KT/KT) (MB)    (MI)  (FT/S/D)
TANNER BANKS               68 66  310/ 16/ 17 1017.1R         5/270/15
S CLEMENTE BASIN           70 70  280/ 10/ 12 1016.4R         3/230/17
SAN NICOLAS IS.               62                N/A           3/280/15
SO. S. ROSA ISLA           64 63  280/ 14/ 16 1017.2R         5/290/15
W. S. BARBARA CH           66 65  290/ 21/ 25 1016.6R         3/270/14
M. S. BARBARA CH           67 66  230/ 10/ 12 1017.1R         2/250/ 5
S. MONICA BASIN               70  310/  6/  8 1015.9R         2/170/19
S PEDRO CHANNEL               68                N/A           2/210/18
CMP PENDLETON NS              67                N/A           3/220/18
OCEANSIDE OFFSHR              68                N/A           2/210/15
TORREY PINES OTR              70                N/A           3/200/20
SAN DIEGO BAY                 74              1016.7R
POINT LOMA SOUTH              70                N/A           3/200/18

$$





USA.gov is the U.S. government's official web portal to all federal, state and local government web resources and services.